Flag for South Africa Weather past 2 weeks in Stellenbosch, South Africa

Now
64 °F

Partly sunny.


Feels Like: 64 °F
Forecast: 57 / 63 °F
Wind: 15 mph from North

Location: Cape Town International Airport

Current Time: May 29, 2015 at 3:36:30 PM

Latest Report: May 29, 2015 at 3:00 PM


Visibility: N/A

Pressure: 29.89 "Hg

Humidity: 73%

Dew point: 55 °F

Location of StellenboschLocation

Historic Weather in Stellenbosch — Graph

°F

Stellenbosch temperature yesterday

Maximum temperature yesterday: 66 °F (at 1:00 PM)
Minimum temperature yesterday: 59 °F (at 12:00 AM)
Average temperature yesterday: 62 °F

Past Weeks' High & Low Weather Summary

 TemperatureHumidityPressure
High84 °F (May 22, 2:00 PM)100% (May 20, 9:00 AM)30.27 "Hg (May 20, 9:00 AM)
Low45 °F (May 17, 7:00 AM)24% (May 22, 4:00 PM)29.86 "Hg (May 18, 3:00 AM)
Average60 °F77%30.04 "Hg
* Reported May 14 2:00 PM — May 29 2:00 PM, Stellenbosch, Weather by CustomWeather, © 2015

Note: Actual official high and low records may vary slightly from our data, if they occured in-between our weather recording intervals... More about our weather records

Advertising

Stellenbosch weather history for previous 24 hours

 ConditionsComfort  
Time TempWeatherWind HumidityBarometerVisibility
2:00 PM
Fri, May 29
64 °FPartly sunny.16 mph73%29.89 "HgN/A
1:00 PM66 °FBroken clouds.14 mph68%29.92 "HgN/A
12:00 PM64 °FBroken clouds.17 mph73%29.95 "HgN/A
11:00 AM61 °FBroken clouds.10 mph77%29.95 "HgN/A
10:00 AM59 °FPassing clouds.15 mph82%29.92 "HgN/A
9:00 AM57 °FPassing clouds.15 mph88%29.92 "HgN/A
8:00 AM55 °FPassing clouds.13 mph94%29.92 "HgN/A
7:00 AM59 °FPassing clouds.10 mph88%29.89 "HgN/A
6:00 AM57 °FPassing clouds.10 mph88%29.89 "HgN/A
5:00 AM57 °FPassing clouds.15 mph82%29.92 "HgN/A
4:00 AM59 °FPassing clouds.14 mph77%29.92 "HgN/A
3:00 AM59 °FPassing clouds.13 mph77%29.95 "HgN/A
2:00 AM59 °FPassing clouds.12 mph82%29.95 "HgN/A
1:00 AM55 °FPassing clouds.5 mph88%29.98 "HgN/A
12:00 AM57 °FPassing clouds.3 mph88%30.01 "HgN/A
11:00 PM
Thu, May 28
59 °FPassing clouds.5 mph82%30.04 "HgN/A
10:00 PM59 °FPassing clouds.10 mph82%30.04 "HgN/A
9:00 PM61 °FPassing clouds.6 mph77%30.04 "HgN/A
8:00 PM63 °FPassing clouds.10 mph77%30.04 "HgN/A
7:00 PM63 °FPassing clouds.10 mph77%30.01 "HgN/A
6:00 PM63 °FPassing clouds.10 mph83%30.04 "HgN/A
5:00 PM63 °FPassing clouds.15 mph83%30.04 "HgN/A
4:00 PM64 °FPartly sunny.20 mph78%30.01 "HgN/A
3:00 PM66 °FPartly sunny.18 mph73%30.01 "HgN/A
Weather by CustomWeather, © 2015

See weather overviewHow to use our weather pages